| time (UTC) | temp C | wind direction | speed KPH | gust KPH | rain 1hr cm | rain 24hr cm | rain mn cm | humidity % | barometer mb |
| 20260509124234 | 6 | 119 | 9.7 | 9.7 | 0.00 | 0.00 | 0.00 | 76 | 998.1 |
| 20260509123733 | 6 | 137 | 6.4 | 6.4 | 0.00 | 0.00 | 0.00 | 78 | 998.2 |
| 20260509123230 | 6 | 118 | 6.4 | 6.4 | 0.00 | 0.00 | 0.00 | 78 | 998.1 |
| 20260509122725 | 6 | 141 | 4.8 | 4.8 | 0.00 | 0.00 | 0.00 | 79 | 998.4 |
| 20260509122222 | 6 | 144 | 4.8 | 4.8 | 0.00 | 0.00 | 0.00 | 79 | 998.2 |
| 20260509121719 | 6 | 147 | 3.2 | 3.2 | 0.00 | 0.00 | 0.00 | 78 | 998.4 |
| 20260509121217 | 6 | 144 | 3.2 | 4.8 | 0.00 | 0.00 | 0.00 | 78 | 998.1 |
| 20260509120715 | 5 | 156 | 3.2 | 4.8 | 0.00 | 0.00 | 0.00 | 79 | 998.4 |
| 20260509120212 | 5 | 132 | 6.4 | 6.4 | 0.00 | 0.00 | 0.00 | 78 | 998.5 |
| 20260509115710 | 6 | 137 | 3.2 | 4.8 | 0.00 | 0.00 | 0.00 | 79 | 998.6 |
| 20260509115207 | 6 | 98 | 1.6 | 3.2 | 0.00 | 0.00 | 0.00 | 76 | 998.7 |
| 20260509114705 | 5 | 83 | 3.2 | 4.8 | 0.00 | 0.00 | 0.00 | 77 | 998.6 |
| 20260509114204 | 5 | 52 | 3.2 | 4.8 | 0.00 | 0.00 | 0.00 | 79 | 998.7 |
| 20260509113702 | 5 | 322 | 1.6 | 4.8 | 0.00 | 0.00 | 0.00 | 81 | 998.7 |
| 20260509113159 | 5 | 333 | 1.6 | 3.2 | 0.00 | 0.00 | 0.00 | 79 | 998.7 |
| 20260509112655 | 5 | 342 | 0.0 | 1.6 | 0.00 | 0.00 | 0.00 | 79 | 998.6 |
| 20260509112152 | 5 | 132 | 0.0 | 3.2 | 0.00 | 0.00 | 0.00 | 79 | 998.8 |
| 20260509111650 | 5 | 107 | 4.8 | 6.4 | 0.00 | 0.00 | 0.00 | 80 | 998.7 |
| 20260509111146 | 5 | 114 | 6.4 | 6.4 | 0.00 | 0.00 | 0.00 | 79 | 998.6 |
| 20260509110643 | 5 | 97 | 9.7 | 11.3 | 0.00 | 0.00 | 0.00 | 77 | 998.7 |
| 20260509110140 | 5 | 147 | 1.6 | 3.2 | 0.00 | 0.00 | 0.00 | 83 | 998.8 |
| 20260509105638 | 4 | 133 | 1.6 | 4.8 | 0.00 | 0.00 | 0.00 | 80 | 999.1 |
| 20260509105136 | 3 | 114 | 1.6 | 4.8 | 0.00 | 0.00 | 0.00 | 83 | 999.0 |
| 20260509104633 | 3 | 102 | 6.4 | 9.7 | 0.00 | 0.00 | 0.00 | 79 | 999.0 |
| 20260509104129 | 4 | 97 | 6.4 | 9.7 | 0.00 | 0.00 | 0.00 | 79 | 999.0 |
| 20260509103627 | 4 | 92 | 8.0 | 9.7 | 0.00 | 0.00 | 0.00 | 78 | 999.0 |
| 20260509103125 | 4 | 99 | 6.4 | 11.3 | 0.00 | 0.00 | 0.00 | 78 | 999.0 |
| 20260509102622 | 4 | 150 | 4.8 | 11.3 | 0.00 | 0.00 | 0.00 | 78 | 998.9 |
| 20260509102119 | 3 | 88 | 8.0 | 9.7 | 0.00 | 0.00 | 0.00 | 79 | 999.1 |
| 20260509101615 | 3 | 24 | 4.8 | 4.8 | 0.00 | 0.00 | 0.00 | 82 | 999.4 |
| 20260509101112 | 3 | 59 | 4.8 | 4.8 | 0.00 | 0.00 | 0.00 | 80 | 999.6 |
| 20260509100609 | 3 | 81 | 4.8 | 4.8 | 0.00 | 0.00 | 0.00 | 80 | 999.8 |
| 20260509100107 | 3 | 69 | 4.8 | 4.8 | 0.00 | 0.00 | 0.00 | 81 | 999.6 |
| 20260509095603 | 4 | 65 | 3.2 | 6.4 | 0.00 | 0.00 | 0.00 | 77 | 999.8 |
| 20260509095101 | 3 | 96 | 3.2 | 6.4 | 0.00 | 0.00 | 0.00 | 79 | 1000.0 |
| 20260509094556 | 3 | 103 | 6.4 | 6.4 | 0.00 | 0.00 | 0.00 | 80 | 999.6 |
| 20260509094054 | 4 | 101 | 6.4 | 9.7 | 0.00 | 0.00 | 0.00 | 78 | 999.9 |
| 20260509093552 | 4 | 92 | 3.2 | 4.8 | 0.00 | 0.00 | 0.00 | 77 | 1000.1 |
| 20260509093049 | 4 | 87 | 3.2 | 4.8 | 0.00 | 0.00 | 0.00 | 76 | 1000.3 |
| 20260509092547 | 5 | 77 | 8.0 | 11.3 | 0.00 | 0.00 | 0.00 | 74 | 1000.3 |
| 20260509092046 | 5 | 77 | 4.8 | 6.4 | 0.00 | 0.00 | 0.00 | 74 | 1000.4 |
| 20260509091543 | 5 | 90 | 6.4 | 6.4 | 0.00 | 0.00 | 0.00 | 73 | 1000.0 |
| 20260509091039 | 5 | 100 | 6.4 | 9.7 | 0.00 | 0.00 | 0.00 | 72 | 1000.3 |
| 20260509090537 | 5 | 87 | 6.4 | 9.7 | 0.00 | 0.00 | 0.00 | 72 | 1000.4 |
| 20260509090035 | 5 | 87 | 9.7 | 11.3 | 0.00 | 0.00 | 0.00 | 71 | 1000.4 |
| 20260509085531 | 5 | 90 | 6.4 | 9.7 | 0.00 | 0.00 | 0.00 | 72 | 1000.5 |
| 20260509085027 | 5 | 86 | 6.4 | 9.7 | 0.00 | 0.00 | 0.00 | 71 | 1000.5 |
| 20260509084524 | 5 | 89 | 6.4 | 9.7 | 0.00 | 0.00 | 0.00 | 71 | 1000.5 |
| 20260509084022 | 5 | 103 | 9.7 | 11.3 | 0.00 | 0.00 | 0.00 | 72 | 1000.5 |
| 20260509083519 | 5 | 109 | 9.7 | 11.3 | 0.00 | 0.00 | 0.00 | 72 | 1000.6 |
| 20260509083015 | 6 | 103 | 11.3 | 12.9 | 0.00 | 0.00 | 0.00 | 69 | 1000.8 |
| 20260509082513 | 5 | 99 | 9.7 | 12.9 | 0.00 | 0.00 | 0.00 | 69 | 1001.0 |
| 20260509082010 | 5 | 93 | 11.3 | 14.5 | 0.00 | 0.00 | 0.00 | 70 | 1001.1 |
| 20260509081507 | 5 | 85 | 12.9 | 14.5 | 0.00 | 0.00 | 0.00 | 71 | 1001.1 |
| 20260509081004 | 5 | 79 | 9.7 | 12.9 | 0.00 | 0.00 | 0.00 | 73 | 1001.2 |
| 20260509080502 | 5 | 76 | 14.5 | 14.5 | 0.00 | 0.00 | 0.00 | 73 | 1001.1 |
| 20260509080000 | 5 | 77 | 12.9 | 12.9 | 0.00 | 0.00 | 0.00 | 73 | 1001.3 |
| 20260509075457 | 5 | 72 | 11.3 | 12.9 | 0.00 | 0.00 | 0.00 | 74 | 1001.4 |
| 20260509074954 | 4 | 47 | 4.8 | 6.4 | 0.00 | 0.00 | 0.00 | 76 | 1001.5 |
| 20260509074452 | 4 | 77 | 9.7 | 12.9 | 0.00 | 0.00 | 0.00 | 75 | 1001.7 |
| 20260509073948 | 4 | 75 | 12.9 | 12.9 | 0.00 | 0.00 | 0.00 | 75 | 1001.7 |
| 20260509073444 | 4 | 81 | 11.3 | 12.9 | 0.00 | 0.00 | 0.00 | 76 | 1001.7 |
| 20260509072941 | 3 | 63 | 9.7 | 12.9 | 0.00 | 0.00 | 0.00 | 77 | 1001.8 |
| 20260509072438 | 3 | 80 | 9.7 | 12.9 | 0.00 | 0.00 | 0.00 | 78 | 1002.0 |
| 20260509071935 | 3 | 69 | 11.3 | 14.5 | 0.00 | 0.00 | 0.00 | 78 | 1002.0 |
| 20260509071431 | 3 | 75 | 12.9 | 14.5 | 0.00 | 0.00 | 0.00 | 77 | 1002.0 |
| 20260509070929 | 4 | 84 | 11.3 | 12.9 | 0.00 | 0.00 | 0.00 | 76 | 1002.2 |
| 20260509070426 | 3 | 84 | 9.7 | 12.9 | 0.00 | 0.00 | 0.00 | 77 | 1002.2 |
| 20260509065921 | 4 | 94 | 9.7 | 12.9 | 0.00 | 0.00 | 0.00 | 75 | 1002.4 |
| 20260509065417 | 5 | 89 | 9.7 | 12.9 | 0.00 | 0.00 | 0.00 | 75 | 1002.4 |
| 20260509064914 | 5 | 84 | 11.3 | 12.9 | 0.00 | 0.00 | 0.00 | 74 | 1002.5 |
| 20260509064411 | 4 | 88 | 11.3 | 14.5 | 0.00 | 0.00 | 0.00 | 77 | 1002.8 |
| 20260509063909 | 5 | 85 | 12.9 | 14.5 | 0.00 | 0.00 | 0.00 | 77 | 1002.6 |
| 20260509063404 | 5 | 84 | 14.5 | 16.1 | 0.00 | 0.00 | 0.00 | 75 | 1002.8 |
| 20260509062902 | 4 | 81 | 14.5 | 14.5 | 0.00 | 0.00 | 0.00 | 76 | 1002.8 |
| 20260509062359 | 5 | 87 | 12.9 | 16.1 | 0.00 | 0.00 | 0.00 | 76 | 1002.9 |
| 20260509061856 | 5 | 72 | 12.9 | 14.5 | 0.00 | 0.00 | 0.00 | 76 | 1002.9 |
| 20260509061354 | 4 | 79 | 11.3 | 14.5 | 0.00 | 0.00 | 0.00 | 78 | 1003.1 |
| 20260509060850 | 5 | 78 | 14.5 | 14.5 | 0.00 | 0.00 | 0.00 | 77 | 1003.2 |
| 20260509060348 | 5 | 78 | 11.3 | 12.9 | 0.00 | 0.00 | 0.00 | 77 | 1003.5 |
| 20260509055843 | 5 | 70 | 11.3 | 14.5 | 0.00 | 0.00 | 0.00 | 76 | 1003.4 |
| 20260509055339 | 5 | 67 | 9.7 | 11.3 | 0.00 | 0.00 | 0.00 | 75 | 1003.8 |
| 20260509054836 | 5 | 68 | 8.0 | 11.3 | 0.00 | 0.00 | 0.00 | 75 | 1003.6 |
| 20260509054332 | 5 | 57 | 8.0 | 11.3 | 0.00 | 0.00 | 0.00 | 75 | 1003.9 |
| 20260509053831 | 4 | 68 | 4.8 | 9.7 | 0.00 | 0.00 | 0.00 | 77 | 1003.8 |
| 20260509053328 | 4 | 66 | 6.4 | 6.4 | 0.00 | 0.00 | 0.00 | 77 | 1004.0 |
| 20260509052826 | 5 | 70 | 3.2 | 4.8 | 0.00 | 0.00 | 0.00 | 75 | 1004.1 |
| 20260509052323 | 5 | 87 | 4.8 | 6.4 | 0.00 | 0.00 | 0.00 | 74 | 1004.2 |
| 20260509051821 | 5 | 94 | 6.4 | 9.7 | 0.00 | 0.00 | 0.00 | 76 | 1004.3 |
| 20260509051319 | 5 | 111 | 9.7 | 12.9 | 0.00 | 0.00 | 0.00 | 74 | 1004.4 |
| 20260509050815 | 5 | 108 | 9.7 | 11.3 | 0.00 | 0.00 | 0.00 | 74 | 1004.4 |
| 20260509050312 | 5 | 107 | 8.0 | 11.3 | 0.00 | 0.00 | 0.00 | 76 | 1004.6 |
| 20260509045809 | 5 | 96 | 6.4 | 9.7 | 0.00 | 0.00 | 0.00 | 76 | 1004.7 |
| 20260509045306 | 5 | 96 | 6.4 | 9.7 | 0.00 | 0.00 | 0.00 | 75 | 1004.8 |
| 20260509044803 | 5 | 97 | 6.4 | 9.7 | 0.00 | 0.00 | 0.00 | 75 | 1004.7 |
| 20260509044301 | 5 | 104 | 6.4 | 9.7 | 0.00 | 0.00 | 0.00 | 75 | 1004.9 |
| 20260509043757 | 5 | 89 | 6.4 | 6.4 | 0.00 | 0.00 | 0.00 | 76 | 1005.2 |
| 20260509043253 | 4 | 83 | 6.4 | 6.4 | 0.00 | 0.00 | 0.00 | 78 | 1005.0 |
| 20260509042749 | 5 | 64 | 3.2 | 4.8 | 0.00 | 0.00 | 0.00 | 80 | 1005.3 |
| 20260509042245 | 5 | 64 | 3.2 | 4.8 | 0.00 | 0.00 | 0.00 | 79 | 1005.2 |
| 20260509041742 | 5 | 60 | 3.2 | 3.2 | 0.00 | 0.00 | 0.00 | 80 | 1005.2 |
| 20260509041239 | 5 | 73 | 3.2 | 4.8 | 0.00 | 0.00 | 0.00 | 79 | 1005.5 |
| 20260509040738 | 5 | 82 | 4.8 | 4.8 | 0.00 | 0.00 | 0.00 | 76 | 1005.6 |
| 20260509040234 | 5 | 80 | 4.8 | 4.8 | 0.00 | 0.00 | 0.00 | 78 | 1005.6 |
| 20260509035731 | 4 | 74 | 3.2 | 3.2 | 0.00 | 0.00 | 0.00 | 78 | 1005.6 |
| 20260509035228 | 4 | 74 | 1.6 | 3.2 | 0.00 | 0.00 | 0.00 | 77 | 1005.6 |
| 20260509034725 | 4 | 74 | 0.0 | 0.0 | 0.00 | 0.00 | 0.00 | 78 | 1005.6 |
| 20260509034223 | 4 | 74 | 0.0 | 4.8 | 0.00 | 0.00 | 0.00 | 78 | 1005.6 |
| 20260509033719 | 4 | 333 | 0.0 | 1.6 | 0.00 | 0.00 | 0.00 | 83 | 1005.6 |
| 20260509033217 | 4 | 333 | 0.0 | 0.0 | 0.00 | 0.00 | 0.00 | 83 | 1005.7 |
| 20260509032714 | 4 | 333 | 0.0 | 1.6 | 0.00 | 0.00 | 0.00 | 80 | 1005.8 |
| 20260509032210 | 4 | 333 | 1.6 | 1.6 | 0.00 | 0.00 | 0.00 | 79 | 1006.0 |
| 20260509031708 | 5 | 333 | 0.0 | 0.0 | 0.00 | 0.00 | 0.00 | 79 | 1005.8 |
| 20260509031205 | 5 | 333 | 0.0 | 1.6 | 0.00 | 0.00 | 0.00 | 78 | 1005.8 |
| 20260509030703 | 4 | 339 | 1.6 | 3.2 | 0.00 | 0.00 | 0.00 | 79 | 1006.0 |
| 20260509030200 | 3 | 161 | 0.0 | 0.0 | 0.00 | 0.00 | 0.00 | 84 | 1005.8 |
| 20260509025656 | 3 | 161 | 0.0 | 0.0 | 0.00 | 0.00 | 0.00 | 84 | 1005.8 |
| 20260509025153 | 3 | 161 | 0.0 | 1.6 | 0.00 | 0.00 | 0.00 | 82 | 1006.2 |
| 20260509024648 | 3 | 161 | 0.0 | 0.0 | 0.00 | 0.00 | 0.00 | 81 | 1005.8 |
| 20260509024144 | 3 | 161 | 0.0 | 0.0 | 0.00 | 0.00 | 0.00 | 83 | 1006.2 |
| 20260509023642 | 4 | 161 | 0.0 | 0.0 | 0.00 | 0.00 | 0.00 | 83 | 1006.0 |
| 20260509023139 | 5 | 161 | 0.0 | 1.6 | 0.00 | 0.00 | 0.00 | 77 | 1006.0 |
| 20260509022635 | 5 | 161 | 0.0 | 0.0 | 0.00 | 0.00 | 0.00 | 72 | 1005.9 |
| 20260509022133 | 5 | 161 | 0.0 | 0.0 | 0.00 | 0.00 | 0.00 | 74 | 1006.2 |
| 20260509021629 | 4 | 161 | 0.0 | 1.6 | 0.00 | 0.00 | 0.00 | 74 | 1006.0 |
| 20260509021127 | 5 | 162 | 1.6 | 3.2 | 0.00 | 0.00 | 0.00 | 74 | 1005.8 |
| 20260509020625 | 4 | 107 | 1.6 | 3.2 | 0.00 | 0.00 | 0.00 | 72 | 1005.9 |
| 20260509020121 | 5 | 105 | 1.6 | 1.6 | 0.00 | 0.00 | 0.00 | 71 | 1005.8 |
| 20260509015621 | 4 | 97 | 3.2 | 3.2 | 0.00 | 0.00 | 0.00 | 68 | 1005.8 |
| 20260509015117 | 4 | 112 | 3.2 | 3.2 | 0.00 | 0.00 | 0.00 | 75 | 1005.9 |
| 20260509014614 | 5 | 164 | 1.6 | 3.2 | 0.00 | 0.00 | 0.00 | 72 | 1005.8 |
| 20260509014110 | 5 | 175 | 0.0 | 0.0 | 0.00 | 0.00 | 0.00 | 68 | 1005.9 |
| 20260509013608 | 6 | 176 | 0.0 | 1.6 | 0.00 | 0.00 | 0.00 | 67 | 1006.0 |
| 20260509013103 | 6 | 175 | 1.6 | 1.6 | 0.00 | 0.00 | 0.00 | 68 | 1005.7 |
| 20260509012600 | 7 | 175 | 3.2 | 3.2 | 0.00 | 0.00 | 0.00 | 64 | 1005.7 |
| 20260509012057 | 6 | 233 | 0.0 | 0.0 | 0.00 | 0.00 | 0.00 | 63 | 1005.7 |
| 20260509011555 | 6 | 235 | 0.0 | 0.0 | 0.00 | 0.00 | 0.00 | 63 | 1005.8 |
| 20260509011051 | 7 | 235 | 0.0 | 0.0 | 0.00 | 0.00 | 0.00 | 65 | 1005.7 |
| 20260509010549 | 8 | 235 | 0.0 | 0.0 | 0.00 | 0.00 | 0.00 | 65 | 1005.8 |
| 20260509010046 | 8 | 235 | 0.0 | 0.0 | 0.00 | 0.00 | 0.00 | 51 | 1005.7 |
| 20260509005544 | 9 | 82 | 0.0 | 0.0 | 0.00 | 0.00 | 0.00 | 51 | 1005.8 |
| 20260509005044 | 9 | 60 | 1.6 | 1.6 | 0.00 | 0.00 | 0.00 | 50 | 1005.6 |
| 20260509004541 | 9 | 99 | 1.6 | 3.2 | 0.00 | 0.00 | 0.00 | 49 | 1005.6 |
| 20260509004038 | 10 | 239 | 1.6 | 3.2 | 0.00 | 0.00 | 0.00 | 49 | 1005.9 |
| 20260509003536 | 10 | 237 | 1.6 | 4.8 | 0.00 | 0.00 | 0.00 | 49 | 1005.7 |
| 20260509003033 | 10 | 237 | 3.2 | 4.8 | 0.00 | 0.00 | 0.00 | 49 | 1005.8 |
| 20260509002531 | 10 | 194 | 4.8 | 4.8 | 0.00 | 0.00 | 0.00 | 48 | 1005.8 |
| 20260509002028 | 10 | 233 | 8.0 | 11.3 | 0.00 | 0.00 | 0.00 | 48 | 1005.8 |
| 20260509001525 | 11 | 223 | 0.0 | 4.8 | 0.00 | 0.00 | 0.00 | 49 | 1005.6 |
| 20260509001021 | 11 | 221 | 8.0 | 11.3 | 0.00 | 0.00 | 0.00 | 47 | 1005.7 |
| 20260509000520 | 11 | 230 | 8.0 | 11.3 | 0.00 | 0.00 | 0.00 | 46 | 1005.9 |
| 20260509000015 | 11 | 227 | 6.4 | 14.5 | 0.00 | 0.00 | 0.00 | 45 | 1006.0 |
| 20260508235513 | 11 | 226 | 6.4 | 14.5 | 0.00 | 0.00 | 0.00 | 44 | 1005.8 |
| 20260508235009 | 11 | 240 | 9.7 | 12.9 | 0.00 | 0.00 | 0.00 | 42 | 1005.9 |
| 20260508234506 | 11 | 234 | 11.3 | 12.9 | 0.00 | 0.00 | 0.00 | 42 | 1006.0 |
| 20260508234003 | 11 | 262 | 8.0 | 11.3 | 0.00 | 0.00 | 0.00 | 43 | 1006.0 |
| 20260508233503 | 11 | 222 | 12.9 | 14.5 | 0.00 | 0.00 | 0.00 | 41 | 1005.9 |
| 20260508232959 | 11 | 244 | 12.9 | 14.5 | 0.00 | 0.00 | 0.00 | 41 | 1005.8 |
| 20260508232456 | 12 | 207 | 9.7 | 16.1 | 0.00 | 0.00 | 0.00 | 40 | 1005.9 |
| 20260508231953 | 12 | 177 | 9.7 | 12.9 | 0.00 | 0.00 | 0.00 | 40 | 1005.9 |
| 20260508231451 | 12 | 259 | 6.4 | 14.5 | 0.00 | 0.00 | 0.00 | 39 | 1006.0 |
| 20260508230948 | 12 | 266 | 9.7 | 14.5 | 0.00 | 0.00 | 0.00 | 40 | 1006.2 |
| 20260508230444 | 12 | 242 | 16.1 | 17.7 | 0.00 | 0.00 | 0.00 | 40 | 1006.2 |
| 20260508225941 | 12 | 218 | 11.3 | 16.1 | 0.00 | 0.00 | 0.00 | 40 | 1006.0 |
| 20260508225438 | 12 | 250 | 12.9 | 16.1 | 0.00 | 0.00 | 0.00 | 40 | 1006.2 |
| 20260508224935 | 13 | 235 | 14.5 | 17.7 | 0.00 | 0.00 | 0.00 | 38 | 1005.9 |
| 20260508224433 | 12 | 192 | 8.0 | 12.9 | 0.00 | 0.00 | 0.00 | 40 | 1005.9 |
| 20260508223930 | 13 | 231 | 12.9 | 14.5 | 0.00 | 0.00 | 0.00 | 39 | 1006.0 |
| 20260508223428 | 12 | 226 | 6.4 | 11.3 | 0.00 | 0.00 | 0.00 | 38 | 1006.2 |
| 20260508222925 | 13 | 257 | 11.3 | 16.1 | 0.00 | 0.00 | 0.00 | 39 | 1006.3 |
| 20260508222423 | 13 | 253 | 9.7 | 22.5 | 0.00 | 0.00 | 0.00 | 39 | 1006.2 |
| 20260508221919 | 13 | 204 | 4.8 | 6.4 | 0.00 | 0.00 | 0.00 | 38 | 1006.0 |
| 20260508221414 | 12 | 253 | 6.4 | 9.7 | 0.00 | 0.00 | 0.00 | 39 | 1006.4 |
| 20260508220911 | 12 | 244 | 12.9 | 20.9 | 0.00 | 0.00 | 0.00 | 41 | 1006.4 |
| 20260508220407 | 12 | 234 | 4.8 | 6.4 | 0.00 | 0.00 | 0.00 | 40 | 1006.4 |
| 20260508215904 | 12 | 251 | 9.7 | 16.1 | 0.00 | 0.00 | 0.00 | 42 | 1006.4 |
| 20260508215401 | 12 | 219 | 3.2 | 9.7 | 0.00 | 0.00 | 0.00 | 40 | 1006.3 |
| 20260508214857 | 12 | 177 | 3.2 | 3.2 | 0.00 | 0.00 | 0.00 | 40 | 1006.3 |
| 20260508214355 | 12 | 206 | 9.7 | 14.5 | 0.00 | 0.00 | 0.00 | 40 | 1006.4 |
| 20260508213851 | 12 | 283 | 8.0 | 16.1 | 0.00 | 0.00 | 0.00 | 43 | 1006.3 |
| 20260508213348 | 12 | 240 | 9.7 | 20.9 | 0.00 | 0.00 | 0.00 | 40 | 1006.4 |
| 20260508212844 | 12 | 262 | 11.3 | 12.9 | 0.00 | 0.00 | 0.00 | 40 | 1006.3 |
| 20260508212341 | 13 | 266 | 8.0 | 9.7 | 0.00 | 0.00 | 0.00 | 39 | 1006.0 |
| 20260508211836 | 12 | 259 | 1.6 | 11.3 | 0.00 | 0.00 | 0.00 | 42 | 1006.0 |
| 20260508211332 | 13 | 188 | 12.9 | 20.9 | 0.00 | 0.00 | 0.00 | 43 | 1006.0 |
| 20260508210830 | 13 | 256 | 12.9 | 16.1 | 0.00 | 0.00 | 0.00 | 40 | 1006.2 |
| 20260508210327 | 13 | 297 | 11.3 | 16.1 | 0.00 | 0.00 | 0.00 | 40 | 1006.3 |
| 20260508205818 | 12 | 186 | 17.7 | 25.7 | 0.00 | 0.00 | 0.00 | 41 | 1006.2 |
| 20260508205314 | 12 | 262 | 14.5 | 17.7 | 0.00 | 0.00 | 0.00 | 42 | 1006.4 |
| 20260508204810 | 12 | 282 | 9.7 | 11.3 | 0.00 | 0.00 | 0.00 | 42 | 1006.4 |
| 20260508204307 | 12 | 244 | 9.7 | 12.9 | 0.00 | 0.00 | 0.00 | 42 | 1006.7 |
| 20260508203804 | 12 | 198 | 4.8 | 9.7 | 0.00 | 0.00 | 0.00 | 42 | 1006.4 |
| 20260508203259 | 11 | 274 | 9.7 | 11.3 | 0.00 | 0.00 | 0.00 | 42 | 1006.5 |
| 20260508202755 | 12 | 248 | 9.7 | 11.3 | 0.00 | 0.00 | 0.00 | 42 | 1006.6 |
| 20260508202253 | 12 | 272 | 3.2 | 3.2 | 0.00 | 0.00 | 0.00 | 46 | 1006.5 |
| 20260508201750 | 11 | 284 | 4.8 | 9.7 | 0.00 | 0.00 | 0.00 | 49 | 1006.7 |
| 20260508201247 | 11 | 251 | 11.3 | 14.5 | 0.00 | 0.00 | 0.00 | 45 | 1006.8 |
| 20260508200743 | 12 | 217 | 6.4 | 9.7 | 0.00 | 0.00 | 0.00 | 44 | 1006.7 |
| 20260508200239 | 12 | 211 | 3.2 | 11.3 | 0.00 | 0.00 | 0.00 | 46 | 1006.9 |
| 20260508195736 | 12 | 271 | 11.3 | 16.1 | 0.00 | 0.00 | 0.00 | 44 | 1006.8 |
| 20260508195232 | 12 | 277 | 9.7 | 12.9 | 0.00 | 0.00 | 0.00 | 45 | 1006.9 |
| 20260508194729 | 11 | 271 | 6.4 | 9.7 | 0.00 | 0.00 | 0.00 | 47 | 1006.9 |
| 20260508194226 | 11 | 327 | 6.4 | 12.9 | 0.00 | 0.00 | 0.00 | 49 | 1007.2 |
| 20260508193723 | 12 | 246 | 8.0 | 9.7 | 0.00 | 0.00 | 0.00 | 44 | 1007.2 |
| 20260508193219 | 11 | 236 | 1.6 | 4.8 | 0.00 | 0.00 | 0.00 | 45 | 1007.0 |
| 20260508192716 | 12 | 241 | 12.9 | 20.9 | 0.00 | 0.00 | 0.00 | 44 | 1007.2 |
| 20260508192214 | 12 | 222 | 4.8 | 12.9 | 0.00 | 0.00 | 0.00 | 44 | 1007.4 |
| 20260508191711 | 11 | 290 | 14.5 | 14.5 | 0.00 | 0.00 | 0.00 | 46 | 1007.3 |
| 20260508191207 | 11 | 268 | 9.7 | 14.5 | 0.00 | 0.00 | 0.00 | 46 | 1007.3 |
| 20260508190705 | 11 | 187 | 3.2 | 4.8 | 0.00 | 0.00 | 0.00 | 45 | 1007.5 |
| 20260508190201 | 11 | 189 | 3.2 | 6.4 | 0.00 | 0.00 | 0.00 | 49 | 1007.5 |
| 20260508185658 | 11 | 251 | 11.3 | 12.9 | 0.00 | 0.00 | 0.00 | 47 | 1007.4 |
| 20260508185155 | 11 | 260 | 9.7 | 12.9 | 0.00 | 0.00 | 0.00 | 49 | 1007.5 |
| 20260508184652 | 11 | 207 | 6.4 | 6.4 | 0.00 | 0.00 | 0.00 | 48 | 1007.4 |
| 20260508184149 | 11 | 207 | 6.4 | 9.7 | 0.00 | 0.00 | 0.00 | 49 | 1007.5 |
| 20260508183646 | 11 | 269 | 8.0 | 12.9 | 0.00 | 0.00 | 0.00 | 50 | 1007.6 |
| 20260508183142 | 11 | 276 | 8.0 | 11.3 | 0.00 | 0.00 | 0.00 | 49 | 1007.6 |
| 20260508182638 | 11 | 222 | 3.2 | 9.7 | 0.00 | 0.00 | 0.00 | 48 | 1007.6 |
| 20260508182135 | 11 | 236 | 3.2 | 4.8 | 0.00 | 0.00 | 0.00 | 48 | 1007.6 |
| 20260508181630 | 11 | 260 | 0.0 | 3.2 | 0.00 | 0.00 | 0.00 | 48 | 1007.7 |
| 20260508181128 | 11 | 64 | 3.2 | 3.2 | 0.00 | 0.00 | 0.00 | 50 | 1007.9 |
| 20260508180624 | 10 | 247 | 3.2 | 6.4 | 0.00 | 0.00 | 0.00 | 49 | 1008.0 |
| 20260508180121 | 10 | 261 | 8.0 | 12.9 | 0.00 | 0.00 | 0.00 | 50 | 1008.0 |
| 20260508175618 | 10 | 298 | 3.2 | 9.7 | 0.00 | 0.00 | 0.00 | 48 | 1007.9 |
| 20260508175115 | 10 | 294 | 0.0 | 4.8 | 0.00 | 0.00 | 0.00 | 49 | 1008.1 |
| 20260508174612 | 10 | 276 | 1.6 | 4.8 | 0.00 | 0.00 | 0.00 | 47 | 1008.1 |
| 20260508174109 | 10 | 286 | 6.4 | 14.5 | 0.00 | 0.00 | 0.00 | 46 | 1008.2 |
| 20260508173606 | 10 | 324 | 9.7 | 14.5 | 0.00 | 0.00 | 0.00 | 49 | 1008.4 |
| 20260508173102 | 10 | 277 | 8.0 | 11.3 | 0.00 | 0.00 | 0.00 | 49 | 1008.4 |
| 20260508172559 | 10 | 298 | 14.5 | 16.1 | 0.00 | 0.00 | 0.00 | 50 | 1008.5 |
| 20260508172056 | 10 | 268 | 9.7 | 12.9 | 0.00 | 0.00 | 0.00 | 49 | 1008.4 |
| 20260508171552 | 10 | 314 | 11.3 | 14.5 | 0.00 | 0.00 | 0.00 | 51 | 1008.4 |
| 20260508171049 | 10 | 288 | 4.8 | 9.7 | 0.00 | 0.00 | 0.00 | 48 | 1008.4 |
| 20260508170546 | 10 | 264 | 6.4 | 9.7 | 0.00 | 0.00 | 0.00 | 51 | 1008.5 |
| 20260508170043 | 10 | 250 | 8.0 | 11.3 | 0.00 | 0.00 | 0.00 | 49 | 1008.5 |
| 20260508165540 | 10 | 232 | 8.0 | 11.3 | 0.00 | 0.00 | 0.00 | 51 | 1008.9 |
| 20260508165037 | 10 | 264 | 8.0 | 16.1 | 0.00 | 0.00 | 0.00 | 51 | 1008.8 |
| 20260508164534 | 10 | 249 | 9.7 | 14.5 | 0.00 | 0.00 | 0.00 | 52 | 1008.8 |
| 20260508164031 | 10 | 260 | 8.0 | 14.5 | 0.00 | 0.00 | 0.00 | 50 | 1008.9 |
| 20260508163528 | 10 | 284 | 4.8 | 12.9 | 0.00 | 0.00 | 0.00 | 47 | 1008.8 |
| 20260508163024 | 10 | 262 | 9.7 | 12.9 | 0.00 | 0.00 | 0.00 | 49 | 1008.9 |
| 20260508162521 | 10 | 219 | 9.7 | 12.9 | 0.00 | 0.00 | 0.00 | 48 | 1008.9 |
| 20260508162019 | 9 | 268 | 14.5 | 20.9 | 0.00 | 0.00 | 0.00 | 50 | 1009.0 |
| 20260508161515 | 10 | 245 | 16.1 | 17.7 | 0.00 | 0.00 | 0.00 | 51 | 1009.0 |
| 20260508161013 | 9 | 255 | 9.7 | 17.7 | 0.00 | 0.00 | 0.00 | 50 | 1009.1 |
| 20260508160511 | 9 | 256 | 9.7 | 11.3 | 0.00 | 0.00 | 0.00 | 52 | 1009.0 |
| 20260508160008 | 9 | 285 | 12.9 | 17.7 | 0.00 | 0.00 | 0.00 | 51 | 1009.1 |
| 20260508155505 | 9 | 267 | 9.7 | 14.5 | 0.00 | 0.00 | 0.00 | 52 | 1009.2 |
| 20260508155001 | 9 | 294 | 9.7 | 12.9 | 0.00 | 0.00 | 0.00 | 53 | 1009.2 |
| 20260508154459 | 9 | 228 | 11.3 | 14.5 | 0.00 | 0.00 | 0.00 | 55 | 1009.2 |
| 20260508153955 | 10 | 240 | 4.8 | 9.7 | 0.00 | 0.00 | 0.00 | 56 | 1009.2 |
| 20260508153453 | 9 | 259 | 6.4 | 11.3 | 0.00 | 0.00 | 0.00 | 59 | 1009.2 |
| 20260508152949 | 10 | 358 | 4.8 | 4.8 | 0.00 | 0.00 | 0.00 | 58 | 1009.1 |
| 20260508152445 | 9 | 216 | 3.2 | 4.8 | 0.00 | 0.00 | 0.00 | 59 | 1009.4 |
| 20260508151942 | 9 | 253 | 4.8 | 11.3 | 0.00 | 0.00 | 0.00 | 61 | 1009.3 |
| 20260508151438 | 10 | 268 | 9.7 | 12.9 | 0.00 | 0.00 | 0.00 | 57 | 1009.5 |
| 20260508150935 | 9 | 197 | 6.4 | 14.5 | 0.00 | 0.00 | 0.00 | 58 | 1009.4 |
| 20260508150432 | 8 | 250 | 9.7 | 9.7 | 0.00 | 0.00 | 0.00 | 61 | 1009.5 |
| 20260508145927 | 8 | 247 | 3.2 | 9.7 | 0.00 | 0.00 | 0.00 | 65 | 1009.6 |
| 20260508145424 | 8 | 287 | 0.0 | 0.0 | 0.00 | 0.00 | 0.00 | 65 | 1009.5 |
| 20260508144921 | 8 | 301 | 0.0 | 0.0 | 0.00 | 0.00 | 0.00 | 67 | 1009.7 |
| 20260508144419 | 8 | 270 | 3.2 | 11.3 | 0.00 | 0.00 | 0.00 | 66 | 1009.7 |
| 20260508143916 | 8 | 279 | 6.4 | 12.9 | 0.00 | 0.00 | 0.00 | 68 | 1009.6 |
| 20260508143413 | 8 | 37 | 3.2 | 4.8 | 0.00 | 0.00 | 0.00 | 64 | 1009.7 |
| 20260508142910 | 7 | 282 | 0.0 | 1.6 | 0.00 | 0.00 | 0.00 | 68 | 1009.7 |
| 20260508142407 | 8 | 186 | 4.8 | 9.7 | 0.00 | 0.00 | 0.00 | 68 | 1009.7 |
| 20260508141903 | 7 | 14 | 1.6 | 4.8 | 0.00 | 0.00 | 0.00 | 77 | 1009.8 |
| 20260508141400 | 7 | 277 | 1.6 | 6.4 | 0.00 | 0.00 | 0.00 | 75 | 1009.8 |
| 20260508140858 | 7 | 355 | 3.2 | 9.7 | 0.00 | 0.00 | 0.00 | 77 | 1010.1 |
| 20260508140355 | 7 | 288 | 6.4 | 9.7 | 0.00 | 0.00 | 0.00 | 77 | 1009.9 |
| 20260508135850 | 7 | 350 | 6.4 | 11.3 | 0.00 | 0.00 | 0.00 | 75 | 1010.0 |
| 20260508135347 | 6 | 257 | 4.8 | 6.4 | 0.00 | 0.00 | 0.00 | 77 | 1010.0 |
| 20260508134843 | 6 | 261 | 6.4 | 9.7 | 0.00 | 0.00 | 0.00 | 78 | 1009.9 |
| 20260508134340 | 6 | 297 | 6.4 | 9.7 | 0.00 | 0.00 | 0.00 | 77 | 1009.9 |
| 20260508133836 | 6 | 288 | 9.7 | 14.5 | 0.00 | 0.00 | 0.00 | 78 | 1010.1 |
| 20260508133335 | 6 | 243 | 9.7 | 11.3 | 0.00 | 0.00 | 0.00 | 78 | 1010.3 |
| 20260508132831 | 6 | 244 | 3.2 | 9.7 | 0.00 | 0.00 | 0.00 | 80 | 1010.3 |
| 20260508132329 | 6 | 233 | 9.7 | 11.3 | 0.00 | 0.00 | 0.00 | 79 | 1010.3 |
| 20260508131825 | 6 | 243 | 8.0 | 9.7 | 0.00 | 0.00 | 0.00 | 82 | 1010.3 |
| 20260508131321 | 5 | 285 | 6.4 | 12.9 | 0.00 | 0.00 | 0.00 | 82 | 1010.3 |
| 20260508130818 | 5 | 253 | 4.8 | 6.4 | 0.00 | 0.00 | 0.00 | 84 | 1010.3 |
| 20260508130315 | 5 | 248 | 8.0 | 9.7 | 0.00 | 0.00 | 0.00 | 83 | 1010.5 |
| 20260508125811 | 5 | 228 | 4.8 | 11.3 | 0.00 | 0.00 | 0.00 | 84 | 1010.3 |
| 20260508125308 | 5 | 260 | 4.8 | 9.7 | 0.00 | 0.00 | 0.00 | 85 | 1010.4 |
| 20260508124806 | 5 | 248 | 4.8 | 9.7 | 0.00 | 0.00 | 0.00 | 86 | 1010.4 |
| 20260508124302 | 5 | 252 | 4.8 | 9.7 | 0.00 | 0.00 | 0.00 | 87 | 1010.1 |